This demonstration page uses our WeatherBlox Daily Observations layout. Learn more.

Left ArrowRight Arrow

Hourly Observations for November 8, 2016

Temp ( °F °C ) Dew Point ( °F °C ) Humidity (%) Winds ( mph kmh ) Pressure ( in mb ) Visibility ( mi km ) Precip ( " mm )
12:53 am 00:53 Clear 45 7.2 39 3.9 80 80 Calm 30.33 1027 10 16 0.00 0.00
1:53 am 01:53 Clear 44 6.7 38 3.3 79 79 Calm 30.32 1027 10 16 0.00 0.00
2:53 am 02:53 Clear 43 6.1 39 3.9 86 86 Calm 30.31 1026 10 16 0.00 0.00
3:53 am 03:53 Clear 43 6.1 39 3.9 86 86 Calm 30.30 1026 10 16 0.00 0.00
4:53 am 04:53 Clear 44 6.7 39 3.9 83 83 NNE 3 6 30.30 1026 10 16 0.00 0.00
5:53 am 05:53 Clear 44 6.7 40 4.4 85 85 Calm 30.31 1027 10 16 0.00 0.00
6:53 am 06:53 Clear 44 6.7 40 4.4 85 85 Calm 30.32 1027 10 16 0.00 0.00
7:53 am 07:53 Sunny 46 7.8 42 5.6 86 86 ENE 3 6 30.32 1027 10 16 0.00 0.00
8:53 am 08:53 Sunny 49 9.4 42 5.6 77 77 NE 3 6 30.32 1027 10 16 0.00 0.00
9:53 am 09:53 Sunny 57 13.9 42 5.6 58 58 VRB 3 6 30.33 1027 10 16 0.00 0.00
10:53 am 10:53 Sunny 59 15 40 4.4 49 49 Calm 30.34 1027 10 16 0.00 0.00
11:53 am 11:53 Sunny 62 16.7 35 1.7 37 37 E 6 9 30.30 1026 10 16 0.00 0.00
12:53 pm 12:53 Sunny 64 17.8 35 1.7 34 34 E 6 9 30.26 1025 10 16 0.00 0.00
1:53 pm 13:53 Sunny 66 18.9 37 2.8 34 34 Calm 30.23 1024 10 16 0.00 0.00
2:53 pm 14:53 Sunny 66 18.9 35 1.7 32 32 VRB 3 6 30.21 1023 10 16 0.00 0.00
3:53 pm 15:53 Sunny 67 19.4 35 1.7 31 31 Calm 30.19 1022 10 16 0.00 0.00
4:53 pm 16:53 Sunny 65 18.3 33 0.6 31 31 Calm 30.19 1022 10 16 0.00 0.00
5:53 pm 17:53 Clear 60 15.6 41 5 50 50 Calm 30.19 1022 10 16 0.00 0.00
6:53 pm 18:53 Clear 58 14.4 42 5.6 56 56 Calm 30.19 1023 10 16 0.00 0.00
7:53 pm 19:53 Clear 54 12.2 42 5.6 64 64 Calm 30.19 1022 10 16 0.00 0.00
8:53 pm 20:53 Clear 50 10 42 5.6 74 74 Calm 30.18 1022 10 16 0.00 0.00
9:53 pm 21:53 Clear 49 9.4 43 6.1 80 80 Calm 30.17 1022 10 16 0.00 0.00
10:53 pm 22:53 Clear 51 10.6 43 6.1 74 74 Calm 30.15 1021 10 16 0.00 0.00
11:53 pm 23:53 Clear 51 10.6 43 6.1 74 74 Calm 30.15 1021 10 16 0.00 0.00

Powered by AerisWeather